World > North America > United States > South Carolina

Hourly Gray Court, SC Regional Weather

Feedback E-mail the Weather

Latest News

Gray Court, SC Weather Maps

°F °C°F °C
Gray Court Weather Map
UTC Time: 5/28/2022, 13:00
Your Time:

Gray Court, SC Regional Weather

Expires:202205281300;;699025
ASUS42 KCAE 281210
RWRCAE
REGIONAL WEATHER ROUNDUP
NATIONAL WEATHER SERVICE COLUMBIA SC
800 AM EDT SAT MAY 28 2022

NOTE: "FAIR" INDICATES FEW OR NO CLOUDS BELOW 12,000 FEET WITH NO
SIGNIFICANT WEATHER AND/OR OBSTRUCTIONS TO VISIBILITY.

NOT ALL STATIONS ARE QUALITY CONTROLLED BY THE NATIONAL 
WEATHER SERVICE. USE DATA WITH CAUTION...ESPECIALLY 
DEWPOINT OBSERVATIONS.


SCZ001>059-115-116-135>137-GAZ040-063>065-077-281300-
...UPSTATE SOUTH CAROLINA...
  
CITY           SKY/WX    TMP DP  RH WIND       PRES   REMARKS
ANDERSON       SUNNY     64  58  80 NW3       29.93R                  
6HR MIN TEMP:  57; 6HR MAX TEMP:  65;                                

LIBERTY        SUNNY     59  57  91 CALM      29.93R                  
6HR MIN TEMP:  52; 6HR MAX TEMP:  59;                                

SPARTANBURG    SUNNY     64  54  68 N5        29.92R                  
CLEMSON        SUNNY     64  57  78 CALM      29.93R                  
6HR MIN TEMP:  58; 6HR MAX TEMP:  64;                                

GREENVILLE     SUNNY     68  55  63 N8        29.94R                  
6HR MIN TEMP:  60; 6HR MAX TEMP:  68;                                

GREENWOOD      SUNNY     64  60  87 CALM      29.94R                  
6HR MIN TEMP:  55; 6HR MAX TEMP:  64;                                

GREER          SUNNY     65  57  75 CALM      29.93R                  
6HR MIN TEMP:  55; 6HR MAX TEMP:  65;                                

ROCK HILL      SUNNY     64  61  90 CALM      29.92R                  
6HR MIN TEMP:  56; 6HR MAX TEMP:  65;                                

LAURENS        SUNNY     63  59  88 CALM      29.92S                  


...CENTRAL SOUTH CAROLINA...
  
CITY           SKY/WX    TMP DP  RH WIND       PRES   REMARKS
COLUMBIA APT   MOSUNNY   72  63  73 NW6       29.89R                  
6HR MIN TEMP:  65; 6HR MAX TEMP:  74;                                

COLUMBIA OWENS SUNNY     72  61  68 N3        29.90R                  
6HR MIN TEMP:  68; 6HR MAX TEMP:  76;                                

MCENTIRE ANGB  SUNNY     70  70 100 NW3       29.88R                  
6HR MIN TEMP:  64; 6HR MAX TEMP:  74;                                

ORANGEBURG     SUNNY     72  67  84 CALM      29.90R                  
6HR MIN TEMP:  67; 6HR MAX TEMP:  72;                                

SUMTER SHAW    SUNNY     71  63  75 N3        29.88R                  
6HR MIN TEMP:  69; 6HR MAX TEMP:  73;                                

NEWBERRY       SUNNY     64  63  94 CALM      29.94R                  
AIKEN          FAIR      68  60  76 W6        29.93R                  
6HR MIN TEMP:  64; 6HR MAX TEMP:  68;                                

BARNWELL       FAIR      72  63  73 CALM      29.90R                  
MANNING        FAIR      70  68  94 W3        29.89R                  
CAMDEN         FAIR      70  64  83 CALM      29.91R                  
LANCASTER      SUNNY     66  63  88 CALM      29.91R                  
WINNSBORO      MOSUNNY   64  61  88 CALM      29.91R                  


...EASTERN AND COASTAL SOUTH CAROLINA...
  
CITY           SKY/WX    TMP DP  RH WIND       PRES   REMARKS
MYRTLE BEACH   PTSUNNY   74  70  87 SW6       29.90R                  
6HR MIN TEMP:  73; 6HR MAX TEMP:  75;                                

N MYRTLE BCH   PTSUNNY   74  70  87 W3        29.89R                  
6HR MIN TEMP:  73; 6HR MAX TEMP:  75;                                

CONWAY         CLOUDY    72  70  94 W3        29.89R                  
MARION         CLOUDY    70  66  88 CALM      29.89R                  
HARTSVILLE     FAIR      70  63  78 N7        29.90R                  
FLORENCE       MOSUNNY   73  69  87 CALM      29.89R                  
6HR MIN TEMP:  69; 6HR MAX TEMP:  73;                                

DARLINGTON     SUNNY     71  64  78 N8        29.90R                  
6HR MIN TEMP:  68; 6HR MAX TEMP:  72;                                

CHARLESTON APT PTSUNNY   73  69  87 NW6       29.88R                  
6HR MIN TEMP:  70; 6HR MAX TEMP:  73;                                

MOUNT PLEASANT PTSUNNY   73  73 100 CALM      29.88S                  
WALTERBORO     PTSUNNY   70  70 100 CALM      29.90R                  
BEAUFORT       CLOUDY    73  69  87 W5        29.89R                  
6HR MIN TEMP:  72; 6HR MAX TEMP:  75;                                

HILTON HEAD    MOSUNNY   73  70  88 W7        29.90R                  


...EASTERN GEORGIA...
  
CITY           SKY/WX    TMP DP  RH WIND       PRES   REMARKS
AUGUSTA BUSH F SUNNY     69  61  75 NW6       29.90R                  
6HR MIN TEMP:  63; 6HR MAX TEMP:  69;                                

AUGUSTA DANIEL SUNNY     71  59  65 NW9       29.91R                  
6HR MIN TEMP:  69; 6HR MAX TEMP:  75;                                

THOMSON        SUNNY     64  59  82 NW5       29.93R                  
6HR MIN TEMP:  60; 6HR MAX TEMP:  68; 6HR PCP:  0.01;                

WASHINGTON     FAIR      63  57  82 NW5       29.94R                  
6HR MIN TEMP:  59; 6HR MAX TEMP:  66;                                

CLAXTON        FAIR      72  68  87 NW3       29.90R                  
6HR MIN TEMP:  67; 6HR MAX TEMP:  72;                                

SYLVANIA       SUNNY     70  68  94 CALM      29.91R                  
STATESBORO     SUNNY     71  64  78 CALM      29.90R                  
6HR MIN TEMP:  67; 6HR MAX TEMP:  71;                                

SAVANNAH       MOSUNNY   71  68  90 NW5       29.89R                  
6HR MIN TEMP:  68; 6HR MAX TEMP:  73;                                



...SOUTHERN NORTH CAROLINA...
  
CITY           SKY/WX    TMP DP  RH WIND       PRES   REMARKS
CHARLOTTE      MOSUNNY   65  60  84 CALM      29.92R                  
6HR MIN TEMP:  57; 6HR MAX TEMP:  66;                                

MONROE         SUNNY     68  56  65 N6        29.90R                  
6HR MIN TEMP:  61; 6HR MAX TEMP:  68;                                

WADESBORO      SUNNY     67  60  76 N5        29.90R                  
6HR MIN TEMP:  62; 6HR MAX TEMP:  70;                                

ROCKINGHAM     SUNNY     68  58  71 N5        29.90R                  
6HR MIN TEMP:  66; 6HR MAX TEMP:  72;                                

RUTHERFORDTON  SUNNY     61  55  82 CALM      29.94S                  
ASHEVILLE      SUNNY     59  54  83 N14       29.98R                  
6HR MIN TEMP:  56; 6HR MAX TEMP:  59;                                


$$
  

SKY/WX - Weather  TMP - Temperature  DP - Dew Point  RH - Humidity
WIND - Wind Direction/Speed PRES - Barometric Pressure VSB - Visibility
WCI - Wind Chill Index E13G22 Wind - East Wind 13 mph/Gusts of 22 mph

Trending Headlines

Gray Court Radar Loop



Gray Court Quick Facts


National Two Day Weather Forecast


E-mail the Gray Court Weather Forecast

Voice your opinion or tell us about page issues...